Chariton, IA

1:14 AM CDT on March 24, 2017 (GMT -0500)
Chariton Municipal

Weather History for KCNC - January, 2012

Change the Weather History Date:

Tuesday, January 24, 2012

  Actual Average Record
Temperature  
Mean Temperature 27 °F -  
Max Temperature 35 °F 36 °F 62 °F (1981)
Min Temperature 19 °F 13 °F -11 °F (1960)
Degree Days  
Heating Degree Days 38    
Moisture  
Dew Point 21 °F    
Average Humidity 74    
Maximum Humidity 86    
Minimum Humidity 65    
Precipitation  
Precipitation 0.00 in - - ()
Sea Level Pressure  
Sea Level Pressure 30.21 in    
Wind  
Wind Speed 6 mph (North)    
Max Wind Speed 10 mph    
Max Gust Speed -    
Visibility 10 miles    
Events      
Averages and records for this station are not official NWS values.
T = Trace of Precipitation, MM = Missing Value Source: NWS Daily Summary

Daily Weather History Graph

Daily Weather History Graph

Search for Another Location

Airport or City:

Trip Planner

Search our weather history database for the weather conditions in past years. The results will help you decide how hot, cold, wet, or windy it might be!

Date:

Astronomy

Jan. 24, 2012 Rise Set
Actual Time 7:31 AM CST 5:20 PM CST
Civil Twilight 7:01 AM CST 5:49 PM CST
Nautical Twilight 6:28 AM CST 6:23 PM CST
Astronomical Twilight 5:55 AM CST 6:55 PM CST
Moon 7:59 AM CST 7:13 PM CST
Length of Visible Light 10h 48m
Length of Day
9h 48m
New Moon, 2% of the Moon is Illuminated
Jan 24
New Moon
Jan 30
First Quarter
Feb 7
Full
Feb 14
Last Quarter
Feb 21
New

Hourly Weather History & Observations

Time (CST) Temp. Windchill Dew Point Humidity Pressure Visibility Wind Dir Wind Speed Gust Speed Precip Events Conditions
12:15 AM 26.6 °F 17.5 °F 19.4 °F 74% 30.05 in 10.0 mi WNW 9.2 mph - N/A   Overcast
12:35 AM 26.6 °F 20.0 °F 19.4 °F 74% 30.06 in 10.0 mi West 5.8 mph - N/A   Overcast
12:55 AM 26.6 °F 16.8 °F 19.4 °F 74% 30.07 in 10.0 mi West 10.4 mph - N/A   Overcast
1:35 AM 26.6 °F 16.8 °F 19.4 °F 74% 30.08 in 10.0 mi NW 10.4 mph - N/A   Overcast
1:55 AM 26.6 °F 16.8 °F 19.4 °F 74% 30.09 in 10.0 mi NW 10.4 mph - N/A   Overcast
2:35 AM 26.6 °F 17.5 °F 19.4 °F 74% 30.11 in 10.0 mi WNW 9.2 mph - N/A   Overcast
2:55 AM 26.6 °F 17.5 °F 19.4 °F 74% 30.12 in 10.0 mi WNW 9.2 mph - N/A   Overcast
3:15 AM 26.6 °F 19.1 °F 19.4 °F 74% 30.12 in 10.0 mi WNW 6.9 mph - N/A   Overcast
3:35 AM 26.6 °F 18.2 °F 19.4 °F 74% 30.13 in 10.0 mi WNW 8.1 mph - N/A   Overcast
3:55 AM 24.8 °F 16.1 °F 19.4 °F 80% 30.13 in 10.0 mi West 8.1 mph - N/A   Overcast
4:15 AM 24.8 °F 17.9 °F 19.4 °F 80% 30.13 in 10.0 mi WNW 5.8 mph - N/A   Overcast
4:35 AM 24.8 °F 19.1 °F 19.4 °F 80% 30.14 in 10.0 mi WNW 4.6 mph - N/A   Overcast
4:55 AM 24.8 °F 16.1 °F 17.6 °F 74% 30.15 in 10.0 mi WNW 8.1 mph - N/A   Overcast
5:15 AM 24.8 °F 17.9 °F 17.6 °F 74% 30.16 in 10.0 mi NW 5.8 mph - N/A   Overcast
5:35 AM 24.8 °F 17.9 °F 17.6 °F 74% 30.18 in 10.0 mi NW 5.8 mph - N/A   Overcast
5:55 AM 23.0 °F 18.4 °F 17.6 °F 80% 30.18 in 10.0 mi NW 3.5 mph - N/A   Scattered Clouds
6:15 AM 21.2 °F - 17.6 °F 86% 30.19 in 10.0 mi Calm Calm - N/A   Clear
6:35 AM 21.2 °F 16.4 °F 15.8 °F 80% 30.19 in 10.0 mi North 3.5 mph - N/A   Clear
6:55 AM 21.2 °F - 15.8 °F 80% 30.19 in 10.0 mi Calm Calm - N/A   Clear
7:15 AM 21.2 °F - 15.8 °F 80% 30.19 in 10.0 mi Calm Calm - N/A   Clear
7:35 AM 21.2 °F - 15.8 °F 80% 30.20 in 10.0 mi Calm Calm - N/A   Clear
8:15 AM 19.4 °F 11.5 °F 15.8 °F 86% 30.19 in 10.0 mi NNE 5.8 mph - N/A   Clear
8:35 AM 21.2 °F - 17.6 °F 86% 30.20 in 10.0 mi Calm Calm - N/A   Clear
8:55 AM 24.8 °F 19.1 °F 17.6 °F 74% 30.21 in 10.0 mi NE 4.6 mph - N/A   Clear
9:15 AM 24.8 °F 20.5 °F 19.4 °F 80% 30.23 in 10.0 mi NNE 3.5 mph - N/A   Clear
9:35 AM 26.6 °F - 19.4 °F 74% 30.25 in 10.0 mi Calm Calm - N/A   Clear
9:55 AM 26.6 °F - 19.4 °F 74% 30.26 in 10.0 mi Calm Calm - N/A   Clear
10:15 AM 26.6 °F 22.6 °F 19.4 °F 74% 30.27 in 10.0 mi East 3.5 mph - N/A   Clear
10:35 AM 26.6 °F - 19.4 °F 74% 30.28 in 10.0 mi Calm Calm - N/A   Clear
10:55 AM 28.4 °F - 19.4 °F 69% 30.29 in 10.0 mi Calm Calm - N/A   Clear
11:15 AM 28.4 °F 24.6 °F 21.2 °F 74% 30.29 in 10.0 mi SSW 3.5 mph - N/A   Clear
11:35 AM 30.2 °F - 21.2 °F 69% 30.29 in 10.0 mi Calm Calm - N/A   Scattered Clouds
11:55 AM 30.2 °F - 21.2 °F 69% 30.28 in 10.0 mi Calm Calm - N/A   Clear
12:15 PM 30.2 °F - 23.0 °F 75% 30.28 in 10.0 mi Calm Calm - N/A   Clear
12:35 PM 32.0 °F - 24.8 °F 75% 30.27 in 10.0 mi Calm Calm - N/A   Clear
12:55 PM 33.8 °F - 24.8 °F 70% 30.26 in 10.0 mi Calm Calm - N/A   Clear
1:15 PM 33.8 °F 30.8 °F 24.8 °F 70% 30.26 in 10.0 mi ENE 3.5 mph - N/A   Clear
1:35 PM 33.8 °F 28.6 °F 24.8 °F 70% 30.25 in 10.0 mi East 5.8 mph - N/A   Clear
1:55 PM 33.8 °F 30.8 °F 24.8 °F 70% 30.26 in 10.0 mi ESE 3.5 mph - N/A   Clear
2:15 PM 35.6 °F 32.8 °F 24.8 °F 65% 30.25 in 10.0 mi ENE 3.5 mph - N/A   Clear
2:35 PM 35.6 °F 32.8 °F 24.8 °F 65% 30.25 in 10.0 mi East 3.5 mph - N/A   Clear
2:55 PM 35.6 °F - 24.8 °F 65% 30.26 in 10.0 mi Calm Calm - N/A   Clear
3:15 PM 35.6 °F 32.8 °F 24.8 °F 65% 30.26 in 10.0 mi SE 3.5 mph - N/A   Clear
3:35 PM 35.6 °F 31.7 °F 26.6 °F 70% 30.25 in 10.0 mi East 4.6 mph - N/A   Clear
3:55 PM 35.6 °F 31.7 °F 26.6 °F 70% 30.26 in 10.0 mi East 4.6 mph - N/A   Clear
4:15 PM 35.6 °F 30.7 °F 26.6 °F 70% 30.26 in 10.0 mi East 5.8 mph - N/A   Clear
4:55 PM 33.8 °F 28.6 °F 26.6 °F 75% 30.25 in 10.0 mi East 5.8 mph - N/A   Scattered Clouds
5:15 PM 33.8 °F 30.8 °F 26.6 °F 75% 30.27 in 10.0 mi East 3.5 mph - N/A   Clear
5:35 PM 33.8 °F 30.8 °F 26.6 °F 75% 30.27 in 10.0 mi East 3.5 mph - N/A   Scattered Clouds
5:55 PM 33.8 °F 29.6 °F 26.6 °F 75% 30.27 in 10.0 mi East 4.6 mph - N/A   Clear
6:15 PM 33.8 °F 29.6 °F 26.6 °F 75% 30.27 in 10.0 mi East 4.6 mph - N/A   Clear
6:35 PM 33.8 °F 27.7 °F 26.6 °F 75% 30.26 in 10.0 mi East 6.9 mph - N/A   Clear
6:55 PM 32.0 °F 24.8 °F 24.8 °F 75% 30.27 in 10.0 mi East 8.1 mph - N/A   Clear
7:35 PM 32.0 °F 24.8 °F 24.8 °F 75% 30.27 in 10.0 mi East 8.1 mph - N/A   Clear
7:55 PM 30.2 °F 24.3 °F 24.8 °F 80% 30.28 in 10.0 mi East 5.8 mph - N/A   Clear
8:15 PM 30.2 °F 24.3 °F 24.8 °F 80% 30.28 in 10.0 mi East 5.8 mph - N/A   Clear
8:35 PM 30.2 °F 23.4 °F 24.8 °F 80% 30.27 in 10.0 mi ENE 6.9 mph - N/A   Clear
8:55 PM 28.4 °F 20.4 °F 23.0 °F 80% 30.26 in 7.0 mi ENE 8.1 mph - N/A   Clear
9:35 PM 28.4 °F 19.7 °F 23.0 °F 80% 30.25 in 7.0 mi East 9.2 mph - N/A   Clear
9:55 PM 28.4 °F 19.7 °F 23.0 °F 80% 30.24 in 10.0 mi East 9.2 mph - N/A   Clear
10:15 PM 28.4 °F 19.7 °F 21.2 °F 74% 30.25 in 10.0 mi ESE 9.2 mph - N/A   Clear
10:35 PM 28.4 °F 20.4 °F 21.2 °F 74% 30.27 in 10.0 mi ESE 8.1 mph - N/A   Clear
10:55 PM 26.6 °F 18.2 °F 21.2 °F 80% 30.27 in 10.0 mi ESE 8.1 mph - N/A   Clear
11:15 PM 26.6 °F 18.2 °F 21.2 °F 80% 30.27 in 10.0 mi East 8.1 mph - N/A   Clear
11:35 PM 26.6 °F 17.5 °F 21.2 °F 80% 30.26 in 10.0 mi ESE 9.2 mph - N/A   Clear
11:55 PM 26.6 °F 20.0 °F 21.2 °F 80% 30.28 in 10.0 mi ESE 5.8 mph - N/A   Clear